カタログに戻る

STARLINK-36287

運用中通信SSO
NORAD 67708·PAYLOAD·🇺🇸 United States

打ち上げ Feb 7, 2026 から Vandenberg Space Force Base

Loading…

次のパス (今後24時間)

TLE

最新Source: CelesTrak SupGP

元期: Sep 14, 2026, 22:39 UTC

1 67708C 26025R   26257.94423611 -.00037834  00000+0 -11739-2 0  2571
2 67708  97.2859   7.9717 0001390  94.8167  39.0402 15.33473619    10

AllMySatでSTARLINK-36287をリアルタイム追跡

Download on the App Store